• In United Kingdom
  • List of Countries
  • For 7 days
  • Water Temperature
  • Satellite Maps
  • Weather Map
  • Weather Widgets
  • user-avatar
    Login

    Hourly Weather Mayrhofen

    Today, 23 June, Friday

    Time Temperature Precipitation Wind Pressure Humidity
    00:00 +11°C° 0.5 mm 1 mps 620 mmHg 88%
    01:00 +10°C° 0 mm 2 mps 619 mmHg 92%
    02:00 +11°C° 0.8 mm 1 mps 619 mmHg 92%
    03:00 +11°C° 0.8 mm 1 mps 619 mmHg 91%
    04:00 +10°C° 0.8 mm 1 mps 619 mmHg 91%
    05:00 +12°C° 0.6 mm 1 mps 620 mmHg 88%
    06:00 +14°C° 0.6 mm 1 mps 621 mmHg 85%
    07:00 +17°C° 0 mm 2 mps 622 mmHg 82%
    08:00 +19°C° 0.2 mm 2 mps 623 mmHg 73%
    09:00 +20°C° 0.2 mm 2 mps 623 mmHg 64%
    10:00 +21°C° 0.2 mm 2 mps 624 mmHg 54%
    11:00 +21°C° 0.5 mm 2 mps 624 mmHg 56%
    12:00 +21°C° 0.5 mm 2 mps 624 mmHg 58%
    13:00 +24°C° 0 mm 2 mps 624 mmHg 57%
    14:00 +23°C° 0.6 mm 2 mps 624 mmHg 58%
    15:00 +23°C° 0.6 mm 2 mps 624 mmHg 60%
    16:00 +21°C° 0.6 mm 2 mps 623 mmHg 61%
    17:00 +20°C° 0.4 mm 2 mps 623 mmHg 68%
    18:00 +20°C° 0.4 mm 1 mps 623 mmHg 75%
    19:00 +18°C° 0.4 mm 1 mps 623 mmHg 82%
    20:00 +16°C° 0.1 mm 1 mps 622 mmHg 85%
    21:00 +14°C° 0.1 mm 1 mps 622 mmHg 87%
    22:00 +12°C° 0.1 mm 1 mps 621 mmHg 90%
    23:00 +12°C° 0 mm 1 mps 621 mmHg 90%

    Tomorrow, 24 June, Saturday

    Time Temperature Precipitation Wind Pressure Humidity
    00:00 +11°C° 0 mm 1 mps 621 mmHg 91%
    01:00 +11°C° 0 mm 1 mps 621 mmHg 91%
    02:00 +10°C° 0 mm 1 mps 620 mmHg 91%
    03:00 +10°C° 0 mm 1 mps 620 mmHg 91%
    04:00 +9°C° 0 mm 1 mps 620 mmHg 91%
    05:00 +12°C° 0 mm 1 mps 621 mmHg 85%
    06:00 +13°C° 0 mm 0 mps 622 mmHg 79%
    07:00 +15°C° 0 mm 0 mps 623 mmHg 73%
    08:00 +17°C° 0 mm 0 mps 623 mmHg 64%
    09:00 +21°C° 0 mm 1 mps 624 mmHg 56%
    10:00 +23°C° 0 mm 1 mps 625 mmHg 47%
    11:00 +24°C° 0.1 mm 1 mps 625 mmHg 49%
    12:00 +24°C° 0.1 mm 1 mps 624 mmHg 51%
    13:00 +24°C° 0.1 mm 2 mps 624 mmHg 52%
    14:00 +23°C° 0.5 mm 1 mps 624 mmHg 57%
    15:00 +22°C° 0.5 mm 1 mps 623 mmHg 62%
    16:00 +21°C° 0.5 mm 1 mps 623 mmHg 68%
    17:00 +20°C° 0.8 mm 1 mps 622 mmHg 75%
    18:00 +19°C° 0.8 mm 1 mps 622 mmHg 82%
    19:00 +18°C° 0.8 mm 1 mps 621 mmHg 89%
    20:00 +15°C° 1 mm 1 mps 621 mmHg 92%
    21:00 +12°C° 1 mm 0 mps 620 mmHg 95%
    22:00 +10°C° 1 mm 0 mps 620 mmHg 98%
    23:00 +10°C° 0.4 mm 0 mps 619 mmHg 98%

    Day after tomorrow, 25 June, Sunday

    Time Temperature Precipitation Wind Pressure Humidity
    00:00 +10°C° 0.4 mm 0 mps 619 mmHg 98%
    01:00 +10°C° 0.4 mm 0 mps 619 mmHg 98%
    02:00 +10°C° 0.5 mm 0 mps 619 mmHg 98%
    03:00 +10°C° 0.5 mm 0 mps 619 mmHg 98%
    04:00 +10°C° 0.5 mm 0 mps 619 mmHg 98%
    05:00 +12°C° 1.3 mm 1 mps 619 mmHg 96%
    06:00 +13°C° 1.3 mm 1 mps 619 mmHg 95%
    07:00 +13°C° 1.3 mm 1 mps 620 mmHg 93%
    08:00 +14°C° 1.1 mm 1 mps 620 mmHg 91%
    09:00 +14°C° 1.1 mm 1 mps 620 mmHg 89%
    10:00 +14°C° 1.1 mm 1 mps 620 mmHg 86%
    11:00 +15°C° 0.9 mm 1 mps 620 mmHg 85%
    12:00 +15°C° 0.9 mm 1 mps 620 mmHg 84%
    13:00 +15°C° 0.9 mm 1 mps 620 mmHg 83%
    14:00 +16°C° 0.5 mm 1 mps 620 mmHg 80%
    15:00 +16°C° 0.5 mm 1 mps 620 mmHg 77%
    16:00 +17°C° 0.5 mm 2 mps 620 mmHg 74%
    17:00 +16°C° 0.3 mm 1 mps 620 mmHg 79%
    18:00 +15°C° 0.3 mm 1 mps 620 mmHg 83%
    19:00 +14°C° 0.3 mm 1 mps 620 mmHg 87%
    20:00 +12°C° 0 mm 1 mps 620 mmHg 90%
    21:00 +11°C° 0 mm 1 mps 619 mmHg 93%
    22:00 +9°C° 0 mm 1 mps 619 mmHg 96%
    23:00 +9°C° 0 mm 1 mps 619 mmHg 96%

    26 June, Monday

    Time Temperature Precipitation Wind Pressure Humidity
    00:00 +8°C° 0 mm 1 mps 618 mmHg 96%
    01:00 +7°C° 0 mm 1 mps 618 mmHg 96%
    02:00 +7°C° 0 mm 1 mps 618 mmHg 96%
    03:00 +6°C° 0 mm 1 mps 617 mmHg 96%
    04:00 +6°C° 0 mm 1 mps 617 mmHg 95%
    05:00 +7°C° 0 mm 0 mps 618 mmHg 90%
    06:00 +10°C° 0 mm 0 mps 619 mmHg 84%
    07:00 +12°C° 0 mm 0 mps 620 mmHg 78%
    08:00 +15°C° 0 mm 0 mps 621 mmHg 68%
    09:00 +17°C° 0 mm 0 mps 622 mmHg 58%
    10:00 +21°C° 0 mm 1 mps 623 mmHg 48%
    11:00 +22°C° 0 mm 1 mps 623 mmHg 46%
    12:00 +23°C° 0 mm 1 mps 623 mmHg 44%
    13:00 +24°C° 0 mm 1 mps 623 mmHg 43%
    14:00 +23°C° 0.1 mm 1 mps 622 mmHg 47%
    15:00 +22°C° 0.1 mm 1 mps 622 mmHg 52%
    16:00 +20°C° 0.1 mm 2 mps 621 mmHg 57%
    17:00 +20°C° 0.5 mm 1 mps 621 mmHg 66%
    18:00 +19°C° 0.5 mm 1 mps 620 mmHg 75%
    19:00 +18°C° 0.5 mm 1 mps 620 mmHg 84%
    20:00 +15°C° 0.7 mm 1 mps 619 mmHg 88%
    21:00 +13°C° 0.7 mm 1 mps 619 mmHg 92%
    22:00 +12°C° 0.7 mm 1 mps 618 mmHg 96%
    23:00 +12°C° 0.3 mm 1 mps 618 mmHg 96%

    27 June, Tuesday

    Time Temperature Precipitation Wind Pressure Humidity
    00:00 +12°C° 0.3 mm 2 mps 618 mmHg 96%
    01:00 +12°C° 0.3 mm 2 mps 618 mmHg 96%
    02:00 +12°C° 0.2 mm 2 mps 618 mmHg 96%
    03:00 +12°C° 0.2 mm 2 mps 618 mmHg 96%
    04:00 +12°C° 0.2 mm 2 mps 617 mmHg 96%
    05:00 +12°C° 0.2 mm 2 mps 618 mmHg 94%
    06:00 +13°C° 0.2 mm 2 mps 618 mmHg 92%
    07:00 +14°C° 0.2 mm 2 mps 618 mmHg 89%
    08:00 +15°C° 0.2 mm 1 mps 619 mmHg 82%
    09:00 +16°C° 0.2 mm 1 mps 619 mmHg 75%
    10:00 +19°C° 0.2 mm 1 mps 620 mmHg 68%
    11:00 +18°C° 0.5 mm 2 mps 620 mmHg 67%
    12:00 +19°C° 0.5 mm 2 mps 619 mmHg 67%
    13:00 +19°C° 0.5 mm 2 mps 619 mmHg 66%
    14:00 +19°C° 0.8 mm 2 mps 619 mmHg 67%
    15:00 +20°C° 0.8 mm 1 mps 619 mmHg 68%
    16:00 +20°C° 0.8 mm 1 mps 619 mmHg 69%
    17:00 +19°C° 0.6 mm 1 mps 618 mmHg 74%
    18:00 +19°C° 0.6 mm 1 mps 618 mmHg 80%
    19:00 +18°C° 0.6 mm 1 mps 618 mmHg 86%
    20:00 +15°C° 0 mm 1 mps 617 mmHg 88%
    21:00 +13°C° 0 mm 2 mps 616 mmHg 91%
    22:00 +10°C° 0 mm 2 mps 616 mmHg 94%
    23:00 +10°C° 0 mm 2 mps 616 mmHg 94%

    28 June, Wednesday

    Time Temperature Precipitation Wind Pressure Humidity
    00:00 +10°C° 0 mm 2 mps 615 mmHg 94%
    01:00 +10°C° 0 mm 2 mps 615 mmHg 95%
    02:00 +10°C° 0 mm 2 mps 615 mmHg 94%
    03:00 +10°C° 0 mm 2 mps 614 mmHg 94%
    04:00 +10°C° 0 mm 2 mps 614 mmHg 94%
    05:00 +12°C° 0 mm 2 mps 614 mmHg 91%
    06:00 +13°C° 0 mm 2 mps 615 mmHg 88%
    07:00 +13°C° 0 mm 3 mps 615 mmHg 84%
    08:00 +16°C° 0 mm 3 mps 616 mmHg 76%
    09:00 +18°C° 0 mm 3 mps 616 mmHg 68%
    10:00 +20°C° 0 mm 3 mps 617 mmHg 59%
    11:00 +20°C° 0.3 mm 3 mps 616 mmHg 60%
    12:00 +21°C° 0.3 mm 3 mps 616 mmHg 60%
    13:00 +21°C° 0.3 mm 3 mps 616 mmHg 60%
    14:00 +19°C° 1.8 mm 3 mps 616 mmHg 70%
    15:00 +17°C° 1.8 mm 3 mps 615 mmHg 79%
    16:00 +16°C° 1.8 mm 2 mps 615 mmHg 89%
    17:00 +16°C° 0.5 mm 2 mps 614 mmHg 88%
    18:00 +16°C° 0.5 mm 2 mps 614 mmHg 87%
    19:00 +16°C° 0.5 mm 2 mps 613 mmHg 86%
    20:00 +14°C° 0.7 mm 3 mps 613 mmHg 88%
    21:00 +12°C° 0.7 mm 3 mps 613 mmHg 90%
    22:00 +11°C° 0.7 mm 3 mps 612 mmHg 92%
    23:00 +11°C° 0.2 mm 3 mps 612 mmHg 91%
    Show more